Terug naar catalogus

STARLINK-37471

ActiefCommunicatieSSO
NORAD 68802·PAYLOAD·🇺🇸 United States

Gelanceerd Apr 23, 2026 vanaf Vandenberg Space Force Base

Loading…

Volgende Passages (komende 24 uur)

TLE

VersSource: CelesTrak SupGP

Epoch: Sep 15, 2026, 02:25 UTC

1 68802C 26089A   26258.10118056 -.00011600  00000+0 -36029-3 0  2584
2 68802  97.2847 103.8574 0001894  87.3380  10.3142 15.33425927    15

Volg STARLINK-37471 in realtime met AllMySat

Download on the App Store